[[{"header":{"parameterUnit":"m.s-1","parameterCategory":1,"la1":30.2991,"la2":30.254,"lo1":-89.0895,"lo2":-89.0444,"dy":0.0017,"dx":0.0017,"nx":28,"ny":28,"refTime":"2024-05-25T03:00:00:Z","depth":0,"parameterNumber":2,"parameterNumberName":"U-component_of_WINDS"},"data":[0,0,0,0,0,0,0,0,0,0,0,0,0,0,0,0,0,0,0,0,0,0,0,0,0,0,0,0,0,0,0,0,0,0,0,0,0,0,0,0,0,0,0,0,0,0,0,0,0,0,0,0,0,0,0,0,0,0,0.9101,0.91,0,0.9062,0.9062,0.9061,0.9028,0.9028,0.9028,0.9027,0.8989,0.8988,0.8987,0,0,0,0,0,0,0,0,0,0,0,0,0,0.9144,0.9144,0.9101,0.91,0.91,0.9062,0.9062,0.9061,0.9028,0.9028,0.9028,0.9027,0.8989,0.8988,0.8987,0,0,0,0,0,0,0,0,0,0,0,0,0,0.9118,0.9144,0.9101,0.9079,0.9076,0.9062,0.9062,0.9061,0.9029,0.9028,0.9027,0.9027,0.8989,0.8988,0.8987,0.8992,0,0,0.8984,0.8983,0,0,0,0,0,0,0,0,0.9119,0.9116,0.9083,0.908,0.9078,0.9049,0.9063,0.9038,0.9029,0.9047,0.9027,0.9027,0.9009,0.9007,0.9001,0.899,0.8988,0.8984,0.8983,0.8983,0.8982,0,0,0,0,0,0,0,0.9121,0.9118,0.9085,0.9082,0.9079,0.907,0.9066,0.9058,0.9032,0.9045,0.9043,0.9039,0.9008,0.9002,0.8999,0.8988,0.8984,0.8983,0.8982,0.8982,0.8976,0.8976,0,0,0,0,0,0,0.9126,0.9119,0.9087,0.9084,0.9097,0.907,0.9065,0.9059,0.9032,0.9027,0.9039,0.9037,0.9004,0.9001,0.8998,0.9,0.8983,0.8982,0.8981,0.8975,0.8976,0.8976,0,0,0,0,0,0,0.9128,0.9124,0.9088,0.9101,0.9096,0.907,0.9063,0.9059,0.9052,0.9027,0.9022,0.9038,0.9003,0.8999,0.8993,0.8998,0.8981,0.898,0.8975,0.8976,0.8976,0.9004,0,0,0,0,0,0,0.9129,0.9124,0.9126,0.9101,0.9095,0.9084,0.9064,0.9058,0.9051,0.9048,0.9024,0.902,0.9002,0.8994,0.8992,0.8996,0.898,0.8974,0.8975,0.8976,0.9003,0.9006,0.9008,0,0,0,0,0,0.9131,0.9137,0.9127,0.9123,0.9097,0.9085,0.9081,0.9061,0.9051,0.9052,0.9036,0.9021,0.8998,0.8994,0.8991,0.8995,0.8974,0.8975,0.8976,0.9002,0.9005,0.9008,0,0,0,0,0,0,0.9164,0.9133,0.9122,0.912,0.9105,0.9079,0.908,0.9066,0.9053,0.9051,0.9026,0.9021,0.9017,0.9005,0.9002,0.8997,0.8984,0.8984,0.9004,0.9008,0.901,0.9013,0.8979,0,0,0,0,0,0.9171,0.9163,0.9137,0.9137,0.913,0.9107,0.91,0.9086,0.9069,0.9063,0.9046,0.9031,0.902,0.9013,0.9002,0.9001,0.8994,0.9002,0.9005,0.9007,0.9008,0.9004,0.9007,0.898,0.898,0.898,0,0,0.9185,0.9167,0.9164,0.9143,0.913,0.9122,0.9102,0.9095,0.9088,0.9062,0.9054,0.9041,0.9022,0.9018,0.9015,0.9008,0.9014,0.9009,0.9011,0.901,0.9005,0.9008,0.901,0.8981,0.898,0.898,0,0,0.9207,0.9194,0.9192,0.9178,0.9158,0.9142,0.9141,0.9117,0.9107,0.9099,0.9078,0.907,0.9052,0.9039,0.903,0.9044,0.9029,0.9041,0.9056,0.9053,0.9055,0.9057,0.906,0.9062,0.9042,0.9042,0.9042,0,0.9228,0.9215,0.9193,0.9186,0.9176,0.9152,0.9149,0.9137,0.9114,0.9108,0.9101,0.9076,0.9062,0.9053,0.9056,0.905,0.9048,0.9044,0.9057,0.9058,0.9059,0.9062,0.9064,0.9044,0.9044,0.9043,0.9043,0,0.924,0.9231,0.9232,0.921,0.9201,0.9196,0.9172,0.9166,0.9151,0.9135,0.9126,0.9108,0.9091,0.9088,0.9075,0.9077,0.9073,0.9061,0.9048,0.9064,0.9066,0.9067,0.9046,0.9045,0.9045,0.9044,0,0,0.9282,0.9246,0.9247,0.9235,0.921,0.9203,0.9196,0.918,0.9174,0.9158,0.9151,0.9136,0.9124,0.9114,0.9099,0.9096,0.9106,0.9084,0.9084,0.9088,0.9105,0.9113,0.9115,0.9096,0.9096,0.9096,0.9106,0,0.9299,0.9286,0.9265,0.9258,0.9249,0.9224,0.9218,0.9202,0.9186,0.9176,0.9159,0.9148,0.9134,0.9127,0.9124,0.9106,0.9109,0.9105,0.9088,0.9088,0.9093,0.9116,0.9125,0.9135,0.9107,0.9107,0.9107,0,0.9317,0.9302,0.9294,0.9268,0.9263,0.9258,0.924,0.9231,0.9211,0.92,0.9187,0.917,0.916,0.9149,0.9135,0.9132,0.9124,0.9114,0.9114,0.9111,0.9098,0.9113,0.9138,0.9139,0.9109,0.9109,0.9109,0,0.9347,0.9325,0.9316,0.9308,0.9277,0.9274,0.9261,0.9241,0.9231,0.9215,0.9208,0.9192,0.9183,0.917,0.9148,0.9142,0.9136,0.9123,0.9126,0.9126,0.9125,0.9125,0.9148,0.9122,0.9122,0.9122,0.9122,0,0.9367,0.9363,0.9329,0.9324,0.9318,0.9293,0.9288,0.9273,0.9254,0.9245,0.9223,0.9215,0.9187,0.9176,0.9159,0.9149,0.9145,0.9135,0.9131,0.9137,0.9138,0.9131,0.9129,0.9122,0.9122,0.9122,0.9122,0,0.9399,0.9376,0.9365,0.9337,0.9329,0.9326,0.9301,0.9295,0.9278,0.9266,0.9262,0.9235,0.922,0.9197,0.9176,0.9164,0.9156,0.915,0.9163,0.916,0.9164,0.9163,0.9182,0.9182,0.9157,0.9157,0.9158,0,0.9412,0.9408,0.9379,0.9371,0.9358,0.9346,0.9336,0.9311,0.9301,0.9277,0.9273,0.9256,0.9242,0.9218,0.9197,0.918,0.9171,0.9179,0.9169,0.9174,0.917,0.917,0.9168,0.9181,0.9182,0.9182,0.9182,0,0.9439,0.9427,0.9413,0.9395,0.9383,0.9368,0.9351,0.9346,0.9317,0.9307,0.9291,0.9279,0.9256,0.9239,0.9219,0.9205,0.9188,0.9186,0.9185,0.9191,0.9198,0.9193,0.9168,0.9185,0.9185,0.9185,0.9185,0.9185,0.9461,0.9455,0.9433,0.9418,0.9402,0.9387,0.9379,0.936,0.9346,0.9325,0.9311,0.9296,0.9274,0.9245,0.9231,0.9218,0.9211,0.9211,0.9211,0.9211,0.9212,0.9201,0.9214,0.9214,0.9214,0.9214,0.9214,0,0.9485,0.9469,0.9455,0.9432,0.9419,0.9405,0.9385,0.9375,0.9362,0.9343,0.9328,0.9309,0.9291,0.9268,0.9249,0.9243,0.9234,0.9238,0.9238,0.9235,0.922,0.9222,0.9245,0.9245,0.9245,0.9245,0.9245,0.9245,0.9496,0.9485,0.947,0.9451,0.9435,0.9419,0.9409,0.9394,0.9379,0.9358,0.9343,0.9328,0.9306,0.9285,0.9268,0.9262,0.9255,0.9261,0.9252,0.9239,0.9236,0.9233,0.9235,0.926,0.926,0.9268,0.9268,0.9268]},{"header":{"parameterUnit":"m.s-1","parameterCategory":1,"la1":30.2991,"la2":30.254,"lo1":-89.0895,"lo2":-89.0444,"dy":0.0017,"dx":0.0017,"nx":28,"ny":28,"refTime":"2024-05-25T03:00:00:Z","depth":0,"parameterNumber":3,"parameterNumberName":"V-component_of_WINDS"},"data":[0,0,0,0,0,0,0,0,0,0,0,0,0,0,0,0,0,0,0,0,0,0,0,0,0,0,0,0,0,0,0,0,0,0,0,0,0,0,0,0,0,0,0,0,0,0,0,0,0,0,0,0,0,0,0,0,0,0,5.3824,5.3824,0,5.3858,5.3858,5.3859,5.3791,5.3789,5.3787,5.3785,5.3816,5.3819,5.3822,0,0,0,0,0,0,0,0,0,0,0,0,0,5.3694,5.3697,5.3824,5.3824,5.3824,5.3858,5.3858,5.3859,5.3792,5.3789,5.3786,5.3784,5.3815,5.3819,5.3822,0,0,0,0,0,0,0,0,0,0,0,0,0,5.3742,5.3698,5.3823,5.3795,5.3793,5.3858,5.3858,5.3859,5.3792,5.3789,5.3786,5.3783,5.3814,5.3818,5.3823,5.3916,0,0,5.3836,5.3838,0,0,0,0,0,0,0,0,5.3739,5.3746,5.3799,5.3797,5.3795,5.3817,5.3824,5.3878,5.3793,5.3793,5.3785,5.3781,5.3819,5.3823,5.3836,5.3917,5.3918,5.3836,5.3839,5.3841,5.3842,0,0,0,0,0,0,0,5.3736,5.3745,5.3837,5.38,5.3797,5.3779,5.3782,5.3834,5.3824,5.3792,5.3788,5.3793,5.3817,5.3832,5.3836,5.3919,5.3836,5.384,5.3843,5.3844,5.4074,5.4077,0,0,0,0,0,0,5.3737,5.3742,5.3836,5.3838,5.3758,5.3784,5.3787,5.3813,5.3823,5.3821,5.3795,5.3789,5.3826,5.3832,5.3837,5.3945,5.3841,5.3845,5.3847,5.4071,5.4075,5.4079,0,0,0,0,0,0,5.3734,5.3746,5.3835,5.3789,5.3799,5.379,5.3819,5.3816,5.3831,5.3825,5.3823,5.3813,5.3824,5.3831,5.3896,5.3945,5.3847,5.3851,5.4066,5.4072,5.4077,5.4161,0,0,0,0,0,0,5.3731,5.3745,5.3782,5.379,5.3802,5.3895,5.3822,5.3819,5.3839,5.3831,5.3841,5.384,5.3822,5.389,5.39,5.3949,5.3854,5.4062,5.4069,5.4075,5.4154,5.4169,5.4181,0,0,0,0,0,5.3727,5.3804,5.3784,5.3796,5.3848,5.3898,5.3904,5.3883,5.3843,5.3879,5.3875,5.3839,5.3938,5.3897,5.3908,5.3959,5.4059,5.4067,5.4075,5.4148,5.4166,5.4181,0,0,0,0,0,0,5.3801,5.3805,5.3783,5.3866,5.3882,5.3886,5.3931,5.3903,5.393,5.3922,5.3893,5.3896,5.3966,5.3969,5.3924,5.4048,5.3991,5.4002,5.4043,5.406,5.4074,5.4071,5.3858,0,0,0,0,0,5.3828,5.387,5.387,5.3943,5.3952,5.3941,5.3962,5.3944,5.3959,5.3965,5.3966,5.3981,5.4015,5.4038,5.4069,5.4154,5.4154,5.4194,5.4208,5.4219,5.4228,5.4271,5.4288,5.4105,5.4104,5.4104,0,0,5.3882,5.3889,5.3918,5.3958,5.3969,5.4011,5.3947,5.3995,5.4025,5.3972,5.4033,5.4034,5.4049,5.4124,5.4157,5.4128,5.4279,5.4229,5.4238,5.4241,5.4281,5.4298,5.4314,5.411,5.4109,5.4108,0,0,5.4003,5.4014,5.4074,5.4086,5.4103,5.4094,5.4108,5.4117,5.4115,5.4177,5.4137,5.4172,5.4232,5.4243,5.4257,5.4379,5.4347,5.439,5.4461,5.4503,5.4517,5.453,5.4572,5.4587,5.4399,5.4399,5.44,0,5.4068,5.4131,5.4109,5.4159,5.4177,5.4132,5.4192,5.4204,5.4229,5.4242,5.421,5.4283,5.4289,5.4365,5.4395,5.4408,5.4422,5.4388,5.4517,5.453,5.4541,5.458,5.4596,5.4404,5.4404,5.4403,5.4403,0,5.4209,5.4254,5.4301,5.4327,5.435,5.4405,5.4389,5.4415,5.4395,5.4389,5.445,5.4456,5.4487,5.4504,5.4485,5.4576,5.4558,5.4522,5.4465,5.4564,5.46,5.4615,5.4412,5.441,5.4408,5.4407,0,0,5.4379,5.4391,5.4408,5.4418,5.4433,5.4465,5.4517,5.4548,5.4569,5.4588,5.4629,5.468,5.4647,5.4662,5.4644,5.4681,5.4775,5.464,5.464,5.4664,5.4873,5.4899,5.4917,5.4754,5.4757,5.4759,5.4871,0,5.4496,5.4587,5.4567,5.4654,5.4693,5.465,5.4695,5.4707,5.4702,5.4733,5.4727,5.4763,5.4718,5.4726,5.4761,5.4756,5.4816,5.4748,5.479,5.4791,5.4786,5.4936,5.4964,5.507,5.4886,5.4888,5.489,0,5.4646,5.4671,5.4763,5.4768,5.4784,5.4825,5.485,5.4881,5.4893,5.4886,5.4903,5.4877,5.4926,5.4869,5.4934,5.4888,5.4904,5.4904,5.4907,5.4909,5.4846,5.494,5.5103,5.5119,5.4912,5.4911,5.4909,0,5.4758,5.4814,5.4875,5.4886,5.4894,5.4923,5.4928,5.4937,5.4956,5.4978,5.4989,5.5016,5.5031,5.5051,5.5032,5.4993,5.51,5.5042,5.5094,5.5095,5.5118,5.5117,5.5284,5.5131,5.5131,5.5131,5.513,0,5.4891,5.4948,5.4925,5.4963,5.5025,5.5,5.5062,5.5062,5.507,5.5105,5.5069,5.5103,5.5076,5.5107,5.5093,5.5148,5.5155,5.515,5.5145,5.5152,5.5153,5.5161,5.5153,5.5135,5.5134,5.5133,5.5132,0,5.5025,5.5013,5.5077,5.5079,5.5081,5.5127,5.5128,5.5162,5.5154,5.5199,5.5208,5.5196,5.523,5.5213,5.5249,5.5239,5.531,5.5296,5.5306,5.5301,5.5354,5.5349,5.5532,5.5553,5.5388,5.539,5.5391,0,5.511,5.5153,5.516,5.5182,5.5189,5.5224,5.5243,5.522,5.5241,5.5257,5.5288,5.532,5.5343,5.54,5.5393,5.5419,5.5405,5.5467,5.5408,5.5414,5.5403,5.54,5.5403,5.5478,5.548,5.5482,5.5483,0,5.5262,5.5253,5.5282,5.5309,5.5332,5.5352,5.5368,5.5388,5.5365,5.539,5.5424,5.5443,5.5479,5.5509,5.5532,5.5535,5.5505,5.5502,5.5515,5.5522,5.5525,5.5522,5.5336,5.5497,5.5496,5.5495,5.5494,5.5494,5.5373,5.5408,5.5418,5.5451,5.5461,5.5476,5.5508,5.5504,5.5532,5.556,5.5545,5.5585,5.5593,5.5621,5.5628,5.5658,5.5633,5.5652,5.5657,5.5662,5.5668,5.5522,5.5662,5.5662,5.5661,5.5661,5.566,0,5.552,5.5524,5.5555,5.5579,5.5604,5.5574,5.559,5.5613,5.5649,5.566,5.5684,5.5723,5.5752,5.5747,5.5773,5.5798,5.5785,5.5805,5.5803,5.5803,5.569,5.5675,5.5816,5.5816,5.5816,5.5816,5.5816,5.5816,5.56,5.5657,5.5649,5.571,5.5713,5.5752,5.5764,5.5777,5.5786,5.5831,5.5855,5.5852,5.5856,5.5882,5.5907,5.5904,5.5915,5.5941,5.5933,5.5827,5.5812,5.5797,5.5783,5.5944,5.5944,5.6044,5.6045,5.6045]}]]